Regional Weather Roundup
Issued by NWS

Home | Current Version | Previous Version | Text Only | Print | Product List | Glossary Off
Versions: 1 2 3 4 5 6 7 8 9 10 11 12 13 14 15 16 17 18 19 20 21 22 23 24 25 26 27 28 29 30 31 32 33 34 35 36 37 38 39 40 41 42 43 44 45 46 47 48 49 50

000
ASUS43 KLOT 281308
RWRIL

ILLINOIS REGIONAL WEATHER ROUNDUP
NATIONAL WEATHER SERVICE CHICAGO/ROMEOVILLE IL
800 AM CDT TUE MAR 28 2017

NOTE: "FAIR" INDICATES FEW OR NO CLOUDS BELOW 12,000 FEET WITH NO
SIGNIFICANT WEATHER AND/OR OBSTRUCTIONS TO VISIBILITY.

* THESE STATIONS ARE NOT UNDER NWS QUALITY CONTROL. THEY ALSO MAY NOT
  REPORT WEATHER SUCH AS PRECIPITATION OR FOG.

ILZ001-002-007-009-015-016-024-281400-
NORTHWEST ILLINOIS

CITY           SKY/WX    TMP DP  RH WIND       PRES   REMARKS
MOLINE         CLOUDY    49  44  83 N3        30.08R
STERLING*      CLOUDY    44  43  96 E7        30.09R FOG
SAVANNA*       CLOUDY    45  44  95 E9        30.09R FOG
$$

ILZ003-004-008-010-011-017-018-281400-
NORTH CENTRAL ILLINOIS

CITY           SKY/WX    TMP DP  RH WIND       PRES   REMARKS
ROCKFORD       CLOUDY    43  38  82 NE13      30.10S
FREEPORT*      CLOUDY    41  40  94 NE9       30.10S FOG
ROCHELLE*      CLOUDY    41  39  91 NE13      30.09R FOG
DE KALB*       CLOUDY    40  38  92 N12       30.08S FOG
PERU*          CLOUDY    42  39  89 NE7       30.09R FOG
$$

ILZ005-006-012>014-019>023-281400-
NORTHEAST ILLINOIS

CITY           SKY/WX    TMP DP  RH WIND       PRES   REMARKS
CHICAGO-OHARE  CLOUDY    41  35  79 NE12      30.08R
CHICAGO-MIDWAY CLOUDY    41  36  82 N13G23    30.08R
AURORA         CLOUDY    42  37  82 NE12      30.08R
LANSING*       CLOUDY    39  38  97 N9        30.08R WCI  32
JOLIET*        CLOUDY    43  37  80 N10       30.08R
WAUKEGAN       CLOUDY    39  37  92 N7        30.09R WCI  34
DUPAGE AIRPORT CLOUDY    41  38  89 N9        30.08R
KANKAKEE*      CLOUDY    40  37  87 N8        30.08R
WHEELING       CLOUDY    40  37  89 N13G18    30.10R
MORRIS*        CLOUDY    42  38  85 CALM      30.07R
ROMEOVILLE*    CLOUDY    41  38  89 NE17      30.07S
NORTHERLY ISL    N/A     38  36  92 NW12        N/A  WCI  30
$$

LMZ740>746-281400-
SOUTHERN LAKE MICHIGAN

STATION/POSITION SKY/WX   TEMP    WIND        PRES    VSBY  WAVE
                          AIR SEA DIR/SP/G                  HT/PER
                          (F)     (DEG/KT/KT) (MB)    (MI)  (FT/S)
HARRISON CRIB              38     350/ 13/ 15   N/A
BURNHAM HARBOR             39     340/ 10/ 14   N/A
CALUMET HARBOR             38     340/ 10/ 15 1018.0R
BURNS HARBOR               38     350/ 10/ 13 1018.6R
MICHIGAN CITY              38     350/ 13/ 15   N/A
$$

ILZ025>027-034>036-040-047-049-050-058-095>099-281400-
WEST-CENTRAL ILLINOIS

CITY           SKY/WX    TMP DP  RH WIND       PRES   REMARKS
QUINCY         CLOUDY    49  47  93 NE5       30.05S FOG
GALESBURG*     CLOUDY    47  47 100 NE5       30.06R FOG
MACOMB*        CLOUDY    48  47  97 N6        30.08S FOG
JACKSONVILLE*  CLOUDY    49  48  95 NW3       30.07R FOG
PITTSFIELD*    CLOUDY    50  49  94 CALM      30.07R FOG
$$

ILZ028>032-037-038-041>044-048-051>054-059>061-281400-
CENTRAL ILLINOIS

CITY           SKY/WX    TMP DP  RH WIND       PRES   REMARKS
PONTIAC        CLOUDY    44  42  92 N8        30.08R
BLOOMINGTON    CLOUDY    42  39  89 NE9       30.07R
DECATUR        CLOUDY    46  42  86 N8        30.06R
PEORIA         CLOUDY    47  44  90 E5        30.08R
LACON*         CLOUDY    44  41  89 NE5       30.08R
LINCOLN*       CLOUDY    47  45  94 N5        30.07R FOG
SPRINGFIELD    CLOUDY    50  46  86 N5        30.07R FOG
TAYLORVILLE    NOT AVBL
$$

ILZ033-039-045-046-055>057-062-063-281400-
EAST-CENTRAL ILLINOIS

CITY           SKY/WX    TMP DP  RH WIND       PRES   REMARKS
CHAMPAIGN      CLOUDY    44  39  82 N9        30.05R
RANTOUL*       CLOUDY    44  39  83 N16       30.06R
MATTOON        CLOUDY    45  44  97 N14       30.03R
PARIS*         CLOUDY    43  41  93 N7        30.05R
$$

ILZ079-100>102-281400-
SOUTHWEST ILLINOIS

CITY           SKY/WX    TMP DP  RH WIND       PRES   REMARKS
ALTON          CLOUDY    50  48  93 VRB5      30.06R
BELLEVILLE     CLOUDY    53  53  98 NW8       30.04R
CAHOKIA*       CLOUDY    53  49  86 N6        30.05R
SPARTA*        CLOUDY    52  49  89 N6        30.06R
$$

ILZ064>066-069>071-074>076-080>082-084>086-088>090-092>094-281400-
SOUTH-CENTRAL ILLINOIS

CITY           SKY/WX    TMP DP  RH WIND       PRES   REMARKS
CARBONDALE     CLOUDY    53  51  93 N5        30.03R
CAIRO*         CLOUDY    55  52  89 N8        30.02R
EFFINGHAM*     CLOUDY    48  47  97 NW6       30.06R FOG
MARION         CLOUDY    55  54  94 N6        30.04R
MT. VERNON     CLOUDY    52  48  86 N6        30.04R
CENTRALIA*     CLOUDY    53  50  90 N7        30.04R
SALEM*         CLOUDY    53  49  87 N5        30.04R FOG
METROPOLIS*    CLOUDY    56  52  88 NW7       30.03R
$$

ILZ067-068-072-073-078-083-087-091-281400-
SOUTHEAST ILLINOIS

CITY           SKY/WX    TMP DP  RH WIND       PRES   REMARKS
LAWRENCEVILLE  CLOUDY    50  49  96 N10       30.02R FOG
FLORA*         CLOUDY    51  48  89 N9        30.04R FOG
FAIRFIELD*     CLOUDY    51  50  94 N7        30.02R FOG
HARRISBURG*    CLOUDY    54  51  90 NW9       30.03R
ROBINSON*      PTSUNNY   49  47  93 N6        30.02R FOG
CARMI*         CLOUDY    51  51  97 NW12G18   30.01R FOG
$$

ABBREVIATIONS USED IN REMARKS
   TC - TEMPERATURE IN CELSIUS
  WCI - WIND CHILL INDEX
   HX - HEAT INDEX
  VSB - VISIBILITY
$$





USA.gov is the U.S. government's official web portal to all federal, state and local government web resources and services.